VE1UHF-4 Weather Reports


time (UTC)temp
C
wind
direction
speed
KPH
gust
KPH
rain 1hr
cm
rain 24hr
cm
rain mn
cm
humidity
%
barometer
mb
20260504231812 15 270 0.0 0.0 0.00 0.00 0.00 76 996.5
20260504230311 16 270 0.0 0.0 0.00 0.00 0.00 76 996.4
20260504223310 16 270 0.0 0.0 0.00 0.00 0.00 76 996.0
20260504221810 17 270 0.0 0.0 0.00 0.00 0.00 76 995.9
20260504220309 17 270 0.0 0.0 0.00 0.00 0.00 76 995.7
20260504214809 17 270 0.0 0.0 0.00 0.00 0.00 76 995.5
20260504213308 17 270 0.0 0.0 0.00 0.00 0.00 77 995.2
20260504211808 18 270 0.0 0.0 0.00 0.00 0.00 77 995.5
20260504210307 18 270 0.0 0.0 0.00 0.00 0.00 77 995.4
20260504204807 18 270 0.0 0.0 0.00 0.00 0.00 78 995.3
20260504203306 18 270 0.0 0.0 0.00 0.00 0.00 78 995.0
20260504201806 18 270 0.0 0.0 0.00 0.00 0.00 78 994.9
20260504200305 18 270 0.0 0.0 0.00 0.00 0.00 79 994.7
20260504194804 18 270 0.0 0.0 0.00 0.00 0.00 79 994.5
20260504193304 18 270 0.0 0.0 0.00 0.00 0.00 81 994.5
20260504191803 18 270 0.0 0.0 0.00 0.00 0.00 81 994.4
20260504190303 18 270 0.0 0.0 0.00 0.00 0.00 82 994.4
20260504184802 18 270 0.0 0.0 0.00 0.00 0.00 84 994.3
20260504183302 18 270 0.0 0.0 0.00 0.00 0.00 86 994.4
20260504181801 18 270 0.0 0.0 0.00 0.00 0.00 86 994.4
20260504180301 18 270 0.0 0.0 0.00 0.00 0.00 87 994.4
20260504174800 17 270 0.0 0.0 0.00 0.00 0.00 87 994.2
20260504173300 17 270 0.0 0.0 0.00 0.00 0.00 88 993.8
20260504171759 16 270 0.0 0.0 0.00 0.00 0.00 88 993.9
20260504170258 15 270 0.0 0.0 0.00 0.00 0.00 88 993.9
20260504160256 12 270 0.0 0.0 0.00 0.00 0.00 89 993.2
20260504150254 10 270 0.0 0.0 0.00 0.00 0.00 89 992.8
20260504140252 8 270 0.0 0.0 0.00 0.00 0.00 87 992.1
20260504130250 7 270 0.0 0.0 0.00 0.00 0.00 87 990.9
20260504120248 6 270 0.0 0.0 0.00 0.00 0.00 85 989.9
20260504100243 5 270 0.0 0.0 0.00 0.00 0.00 85 987.0
20260504081739 5 270 0.0 0.0 0.00 0.00 0.00 82 984.2
20260504080239 5 270 0.0 0.0 0.00 0.00 0.00 82 983.8
20260504070237 5 270 0.0 0.0 0.00 0.00 0.00 81 982.5
20260504060234 5 270 0.0 0.0 0.00 0.00 0.00 83 980.6
20260504050232 5 270 0.0 0.0 0.00 0.00 0.00 84 979.2
20260504044732 5 270 0.0 0.0 0.00 0.00 0.00 84 979.3
20260504043231 5 270 0.0 0.0 0.00 0.00 0.00 83 979.1
20260504040230 5 270 0.0 0.0 0.00 0.00 0.00 82 979.1
20260504034730 5 270 0.0 0.0 0.00 0.00 0.00 82 979.1
20260504033229 5 270 0.0 0.0 0.00 0.00 0.00 82 979.2
20260504030228 5 270 0.0 0.0 0.00 0.00 0.00 82 979.5
20260504024727 6 270 0.0 0.0 0.00 0.00 0.00 81 979.7
20260504023227 6 270 0.0 0.0 0.00 0.00 0.00 82 980.1
20260504020226 6 270 0.0 0.0 0.00 0.00 0.00 82 981.0
20260504014725 6 270 0.0 0.0 0.00 0.00 0.00 82 981.4
20260504013225 6 270 0.0 0.0 0.00 0.00 0.00 82 981.5
20260504011730 6 270 0.0 0.0 0.00 0.00 0.00 82 981.6
20260504010223 6 270 0.0 0.0 0.00 0.00 0.00 82 982.2
20260504004723 6 270 0.0 0.0 0.00 0.00 0.00 82 982.7
20260504000221 6 270 0.0 0.0 0.00 0.00 0.00 80 983.0
20260503234721 6 270 0.0 0.0 0.00 0.00 0.00 80 983.6